This is the latest recevied weather packets stored in our database for station/object KC4JIR. If no packets are shown the sender has not sent any weather packets the latest 10 day(s).
| Time | Temp. | Humidity | Pressure | Rain* | Wind** | Luminosity | Snow |
|---|---|---|---|---|---|---|---|
| 1777418497 | 17.22° C | 99% | 1015.1 hPa | 0 mm | - | 11 W/m² | - |
| 1777418193 | 17.22° C | 99% | 1014.6 hPa | 0 mm | - | 22 W/m² | - |
| 1777417889 | 17.22° C | 99% | 1014.5 hPa | 0 mm | - | 37 W/m² | - |
| 1777417586 | 17.22° C | 99% | 1014.8 hPa | 0 mm | - | 36 W/m² | - |
| 1777417281 | 17.22° C | 99% | 1014.9 hPa | 0 mm | - | 26 W/m² | - |
| 1777416978 | 17.22° C | 99% | 1014.9 hPa | 0 mm | - | 24 W/m² | - |
| 1777416674 | 17.22° C | 99% | 1015 hPa | 0 mm | - | 27 W/m² | - |
| 1777416370 | 17.22° C | 99% | 1015.1 hPa | 0 mm | - | 26 W/m² | - |
| 1777416069 | 17.22° C | 99% | 1015.3 hPa | 0 mm | - | 36 W/m² | - |
| 1777415764 | 17.22° C | 99% | 1015.8 hPa | 0 mm | - | 42 W/m² | - |
| 1777414851 | 16.67° C | 99% | 1015.9 hPa | 1.27 mm | - | 22 W/m² | - |
| 1777414551 | 16.67° C | 99% | 1015.8 hPa | 1.27 mm | - | 22 W/m² | - |
| 1777414251 | 16.67° C | 99% | 1015.6 hPa | 0 mm | - | 19 W/m² | - |
| 1777413946 | 16.67° C | 99% | 1015.6 hPa | 1.78 mm | - | 19 W/m² | - |
| 1777413642 | 16.67° C | 99% | 1015.8 hPa | 6.1 mm | - | 21 W/m² | - |
| 1777413338 | 16.67° C | 99% | 1015.8 hPa | 6.1 mm | - | 21 W/m² | - |
| 1777412426 | 17.78° C | 98% | 1016.8 hPa | 0 mm | - | 24 W/m² | - |
| 1777412126 | 17.78° C | 98% | 1017.1 hPa | 1.78 mm | - | 24 W/m² | - |
| 1777411822 | 17.78° C | 98% | 1017.2 hPa | 1.78 mm | - | 24 W/m² | - |
| 1777411520 | 17.78° C | 97% | 1017.4 hPa | 0 mm | - | 29 W/m² | - |
| 1777411215 | 17.78° C | 97% | 1017.5 hPa | 0 mm | - | 29 W/m² | - |
| 1777410909 | 17.78° C | 96% | 1017.5 hPa | 0 mm | - | 35 W/m² | - |
| 1777410609 | 17.78° C | 96% | 1017.9 hPa | 0 mm | - | 35 W/m² | - |
| 1777410303 | 17.78° C | 95% | 1017.8 hPa | 0 mm | - | 44 W/m² | - |
| 1777409998 | 17.78° C | 95% | 1017.9 hPa | 0 mm | - | 44 W/m² | - |
* Rain latest hour (hover to see other rain measurements)
** Current wind speed in m/s (hover to see current wind gust speed)